Location: Larkspur
(54.4391°N, 113.7691°W)
Time: 13:49:44
(UTC+00:00)

Oscar 19 - Pass Details

Date: 07 December 2023
Orbit: 771 x 789 km, 98.9° (Epoch: 01 March)

Event Time Altitude Azimuth Distance (km) Brightness Sun altitude
Rises 12:33:27 0° 16° (NNE) 3,275 14.0 -25.8°
Reaches altitude 10° 12:35:46 10° 18° (NNE) 2,345 13.3 -25.5°
Maximum altitude 12:40:58 80° 105° (ESE) 801 10.7 -24.7°
Drops below altitude 10° 12:46:08 10° 194° (SSW) 2,340 13.0 -24.0°
Sets 12:48:27 0° 195° (SSW) 3,267 13.8 -23.7°
